Location: Decatur Area Astronomy Club
(40.0275°N, 88.7810°W)
Time: 09:40:15
(UTC-06:00)

Amateur Radio Satellites - All Passes

Search period start: 28 November 2014 09:10
Search period end: 29 November 2014 09:10
Location: Decatur Area Astronomy Club, 40.0275°N, 88.7810°W

Satellite Date Start Highest point End Downlink Frequencies (MHz)
Time Altitude Azimuth
COMPASS 1 28 Nov 09:13:06 09:17:22 88° 283° (WNW) 09:21:38 437.405
CANX-2 28 Nov 09:16:00 09:20:12 54° 286° (WNW) 09:24:24 2200.000
GOMX 1 28 Nov 09:16:39 09:20:51 87° 283° (WNW) 09:25:11 467.674
NANOSAT C BR1 28 Nov 09:22:37 09:26:19 30° 70° (ENE) 09:30:01 145.865
HUMSAT D 28 Nov 09:25:15 09:27:15 13° 92° (E) 09:29:14 437.325/437.525
DX 1 28 Nov 09:28:41 09:32:54 49° 100° (E) 09:37:05 434.975-435.025
BUGSAT 1 28 Nov 09:30:06 09:33:49 30° 70° (ENE) 09:37:30 437.445
UWE-3 28 Nov 09:30:15 09:34:03 30° 97° (E) 09:37:55 435.000/436.395/437.385
QB50P1 28 Nov 09:32:36 09:36:33 38° 72° (ENE) 09:40:29 145.935-145.965
CUBEBUG 2 28 Nov 09:35:09 09:39:12 40° 99° (E) 09:43:20 437.445
CUTE 1.7 + AOD 2 28 Nov 09:50:51 09:54:23 25° 291° (WNW) 09:57:55 437.475
POPSAT HIP 1 28 Nov 09:57:25 10:01:40 75° 76° (ENE) 10:05:55 437.405
BRITE-PL 28 Nov 09:59:07 10:02:17 21° 292° (WNW) 10:05:29 437.365/2234.400
ZACube-1 28 Nov 09:59:19 10:03:31 56° 100° (E) 10:07:47 437.345
TIGRISAT 28 Nov 10:00:20 10:04:34 70° 258° (WSW) 10:08:49 435.000
DOVE 4 28 Nov 10:01:02 10:04:55 37° 288° (WNW) 10:08:55 437.250
VELOX 1 28 Nov 10:09:45 10:13:58 42° 99° (E) 10:18:09 145.980
GONETS M04 28 Nov 10:09:47 10:15:08 17° 299° (WNW) 10:20:32
UNISAT 6 28 Nov 10:15:39 10:19:44 45° 261° (W) 10:23:51 437.425
CINEMA 3 28 Nov 10:17:55 10:21:54 40° 288° (WNW) 10:26:01 145.822/145.860
ESTCUBE 1 28 Nov 10:18:11 10:21:35 21° 94° (E) 10:24:57 437.505/2401.250
SEEDS 28 Nov 10:21:36 10:23:55 14° 295° (WNW) 10:26:14 437.485
DELFI C3 28 Nov 10:24:03 10:27:51 36° 288° (WNW) 10:31:38 145.870
UKube-1 28 Nov 10:26:47 10:30:47 37° 289° (WNW) 10:34:46 .
HO-68 28 Nov 10:30:25 10:36:13 28° 300° (WNW) 10:42:00 435.675
50 SAT 28 Nov 10:30:26 10:34:29 62° 101° (E) 10:38:32 437.505
POLYITAN 1 28 Nov 10:32:54 10:36:56 41° 261° (W) 10:40:58 437.675
AAUSAT CUBESAT 2 28 Nov 10:33:15 10:35:29 14° 295° (WNW) 10:37:42 437.432
FUNcube-1 28 Nov 10:33:40 10:37:52 59° 285° (WNW) 10:42:08 145.935
QB50P2 28 Nov 10:33:52 10:37:53 40° 261° (W) 10:41:55 145.880/145.840
Oscar 11 28 Nov 10:36:30 10:40:03 25° 291° (WNW) 10:43:37 145.826/435.025
AISAT 28 Nov 10:37:30 10:41:56 90° 123° (ESE) 10:46:21 437.250
DUCHIFAT 1 28 Nov 10:38:16 10:42:12 37° 262° (W) 10:46:09 145.980
CUBEBUG 1 28 Nov 10:40:59 10:44:57 33° 97° (E) 10:48:52 437.445
ANTELSAT 28 Nov 10:45:43 10:49:01 22° 265° (W) 10:52:19 437.575/2403.000
NANOSAT C BR1 28 Nov 10:58:53 11:02:12 22° 265° (W) 11:05:32 145.865
HUMSAT D 28 Nov 10:59:17 11:03:19 49° 287° (WNW) 11:07:23 437.325/437.525
SO-50 28 Nov 11:00:54 11:05:23 35° 50° (NE) 11:09:53 436.795
BUGSAT 1 28 Nov 11:05:59 11:09:18 22° 265° (W) 11:12:37 437.445
DX 1 28 Nov 11:06:13 11:08:44 15° 296° (WNW) 11:11:14 434.975-435.025
UWE-3 28 Nov 11:07:07 11:10:26 22° 292° (WNW) 11:13:49 435.000/436.395/437.385
QB50P1 28 Nov 11:09:46 11:12:35 17° 267° (W) 11:15:24 145.935-145.965
CUBEBUG 2 28 Nov 11:12:48 11:15:37 18° 293° (WNW) 11:18:30 437.445
TISAT 1 28 Nov 11:36:17 11:40:07 34° 98° (E) 11:43:55 437.305
ZACube-1 28 Nov 11:37:28 11:39:27 13° 296° (WNW) 11:41:27 437.345
VELOX 1 28 Nov 11:47:18 11:50:13 18° 295° (WNW) 11:53:09 145.980
ITAMSAT 1 28 Nov 11:53:33 11:55:59 13° 60° (ENE) 11:58:25 435.822/435.867
SPROUT 28 Nov 11:54:10 11:58:20 49° 100° (E) 12:02:28 437.525
ESTCUBE 1 28 Nov 11:54:24 11:58:33 36° 290° (WNW) 12:02:40 437.505/2401.250
VERMONT LUNAR 28 Nov 11:58:05 11:59:54 13° 145° (SE) 12:01:43 437.305
50 SAT 28 Nov 12:08:11 12:09:16 11° 297° (WNW) 12:10:21 437.505
SWISSCUBE 28 Nov 12:11:02 12:13:20 13° 91° (E) 12:15:38 437.505
CUBEBUG 1 28 Nov 12:17:50 12:21:07 21° 293° (WNW) 12:24:22 437.445
CUSAT 1 28 Nov 12:21:45 12:24:22 66° 98° (E) 12:26:58 437.405
YUBILEINY 28 Nov 12:28:54 12:37:05 43° 74° (ENE) 12:45:10 435.215
Oscar 19 28 Nov 12:30:35 12:35:39 74° 74° (ENE) 12:40:47 437.125/150
Gurwin Techsat 1B 28 Nov 12:39:36 12:43:28 21° 64° (ENE) 12:47:21 435.225
BEESAT 28 Nov 12:40:09 12:44:06 25° 95° (E) 12:48:02 436.000
SO-50 28 Nov 12:41:37 12:45:51 30° 247° (WSW) 12:50:04 436.795
AUBIESAT-1 28 Nov 12:55:52 13:00:24 37° 102° (ESE) 13:04:45 437.475
DANDE 28 Nov 12:59:53 13:02:20 31° 282° (WNW) 13:04:44 436.750
M-CUBED/EXP-1 PRIME 28 Nov 13:02:53 13:07:39 47° 103° (ESE) 13:12:14 437.505
TISAT 1 28 Nov 13:12:41 13:15:43 20° 293° (WNW) 13:18:45 437.305
MaSat-1 28 Nov 13:16:32 13:17:04 10° 107° (ESE) 13:17:35 437.345
ITAMSAT 1 28 Nov 13:29:33 13:34:46 80° 257° (WSW) 13:40:01 435.822/435.867
SPROUT 28 Nov 13:31:37 13:34:00 15° 295° (WNW) 13:36:23 437.525
VERMONT LUNAR 28 Nov 13:34:21 13:37:52 51° 160° (SSE) 13:41:23 437.305
PHONESAT 2.4 28 Nov 13:34:30 13:37:59 40° 157° (SSE) 13:41:29 2401.200-2431.200
ITUPSAT 1 28 Nov 13:36:55 13:41:45 86° 285° (WNW) 13:46:32 437.325
O/OREOS (USA 219) 28 Nov 13:45:58 13:48:15 14° 54° (NE) 13:50:32 437.305
SWISSCUBE 28 Nov 13:46:51 13:51:36 62° 287° (WNW) 13:56:18 437.505
KKS-1 28 Nov 13:59:42 14:03:46 34° 98° (E) 14:07:48 437.445
RS-15 28 Nov 14:03:40 14:12:32 30° 104° (ESE) 14:21:19 29.354- 29.394
Oscar 19 28 Nov 14:13:32 14:15:31 12° 270° (W) 14:17:31 437.125/150
AO-7 28 Nov 14:13:38 14:21:10 41° 61° (ENE) 14:28:45 29.400- 29.500
HORYU 2 28 Nov 14:15:32 14:19:56 72° 75° (ENE) 14:24:23 437.375
BEESAT 28 Nov 14:17:41 14:21:58 33° 291° (WNW) 14:26:12 436.000
Gurwin Techsat 1B 28 Nov 14:17:54 14:23:03 50° 260° (W) 14:28:13 435.225
YUBILEINY 28 Nov 14:25:52 14:33:46 41° 273° (W) 14:41:38 435.215
AUBIESAT-1 28 Nov 14:31:06 14:35:10 26° 298° (WNW) 14:39:07 437.475
M-CUBED/EXP-1 PRIME 28 Nov 14:38:37 14:42:18 22° 300° (WNW) 14:45:56 437.505
MaSat-1 28 Nov 14:48:50 14:51:18 25° 299° (WNW) 14:53:36 437.345
STARS 28 Nov 14:49:24 14:53:49 83° 103° (ESE) 14:58:13 437.465
VERMONT LUNAR 28 Nov 15:12:39 15:16:17 82° 357° (N) 15:19:55 437.305
PHONESAT 2.4 28 Nov 15:12:56 15:16:39 87° 353° (N) 15:20:23 2401.200-2431.200
O/OREOS (USA 219) 28 Nov 15:23:40 15:28:06 64° 251° (WSW) 15:32:31 437.305
JAS-2 28 Nov 15:29:14 15:36:19 41° 66° (ENE) 15:43:30 435.910
KKS-1 28 Nov 15:36:50 15:40:12 22° 293° (WNW) 15:43:33 437.445
AO-7 28 Nov 16:05:58 16:13:48 46° 260° (W) 16:21:44 29.400- 29.500
RS-15 28 Nov 16:12:53 16:23:50 73° 305° (NW) 16:34:49 29.354- 29.394
Cubesat XI-IV 28 Nov 16:31:23 16:35:57 29° 67° (ENE) 16:40:31 437.490
VERMONT LUNAR 28 Nov 16:51:10 16:54:47 73° 194° (SSW) 16:58:24 437.305
PHONESAT 2.4 28 Nov 16:51:46 16:55:30 85° 192° (SSW) 16:59:13 2401.200-2431.200
MOZHAYETS 4 28 Nov 17:00:39 17:05:20 87° 103° (ESE) 17:09:59
CUTE-I 28 Nov 17:11:03 17:16:20 66° 73° (ENE) 17:21:39 437.470
PRISM 28 Nov 17:11:18 17:14:15 18° 94° (E) 17:17:10 437.425
JAS-2 28 Nov 17:13:56 17:21:09 44° 264° (W) 17:28:36 435.910
Cubesat XI-IV 28 Nov 18:11:01 18:15:54 35° 263° (W) 18:20:48 437.490
GONETS M04 28 Nov 18:19:28 18:27:56 48° 75° (ENE) 18:36:18
AIST 1 28 Nov 18:23:48 18:27:25 26° 89° (E) 18:31:04
RS-15 28 Nov 18:29:53 18:38:31 26° 333° (NNW) 18:47:17 29.354- 29.394
VERMONT LUNAR 28 Nov 18:30:02 18:32:56 22° 210° (SSW) 18:35:49 437.305
PHONESAT 2.4 28 Nov 18:30:46 18:34:05 30° 206° (SSW) 18:37:22 2401.200-2431.200
PCSat 28 Nov 18:32:38 18:37:56 59° 114° (ESE) 18:43:16 145.827
AIST 2 28 Nov 18:36:47 18:39:09 15° 109° (ESE) 18:41:32 435.215
MOZHAYETS 4 28 Nov 18:41:45 18:41:49 10° 299° (WNW) 18:41:53
PRISM 28 Nov 18:46:01 18:49:54 36° 289° (WNW) 18:53:45 437.425
CUBESAT XI-V 28 Nov 18:50:23 18:55:05 90° 104° (ESE) 18:59:42 437.345
STRAND 1 28 Nov 18:53:44 18:58:52 83° 104° (ESE) 19:03:57 437.568
CUTE-I 28 Nov 18:53:50 18:56:51 15° 269° (W) 18:59:52 437.470
BEESAT 3 28 Nov 19:07:13 19:11:17 74° 120° (ESE) 19:15:27 437.485
CUTE 1.7 + AOD 2 28 Nov 19:08:16 19:11:13 19° 67° (ENE) 19:14:10 437.475
HO-68 28 Nov 19:09:45 19:16:22 42° 65° (ENE) 19:23:00 435.675
BEESAT 2 28 Nov 19:25:08 19:29:15 80° 301° (WNW) 19:33:27 435.950
DOVE 4 28 Nov 19:30:03 19:33:04 18° 67° (ENE) 19:36:00 437.250
BRITE-PL 28 Nov 19:30:23 19:34:50 35° 72° (ENE) 19:38:58 437.365/2234.400
SEEDS 28 Nov 19:36:29 19:40:14 32° 71° (ENE) 19:44:00 437.485
DELFI C3 28 Nov 19:39:59 19:41:06 11° 63° (ENE) 19:42:14 145.870
CINEMA 3 28 Nov 19:44:16 19:46:41 15° 66° (ENE) 19:49:04 145.822/145.860
UKube-1 28 Nov 19:46:51 19:49:30 16° 64° (ENE) 19:52:08 .
AAUSAT CUBESAT 2 28 Nov 19:47:12 19:50:53 32° 71° (ENE) 19:54:36 437.432
Oscar 11 28 Nov 19:55:09 19:58:22 21° 67° (ENE) 20:01:36 145.826/435.025
AIST 1 28 Nov 20:01:19 20:04:59 26° 285° (WNW) 20:08:42
COMPASS 1 28 Nov 20:04:12 20:08:16 57° 74° (ENE) 20:12:24 437.405
CANX-2 28 Nov 20:08:20 20:12:32 83° 257° (WSW) 20:16:48 2200.000
AIST 2 28 Nov 20:13:12 20:17:19 52° 305° (NW) 20:21:32 435.215
GONETS M04 28 Nov 20:16:42 20:24:28 37° 275° (W) 20:32:11
PCSat 28 Nov 20:17:35 20:21:44 22° 313° (NW) 20:25:55 145.827
DX 1 28 Nov 20:23:49 20:27:54 40° 71° (ENE) 20:32:00 434.975-435.025
GOMX 1 28 Nov 20:24:10 20:28:54 87° 257° (WSW) 20:33:20 467.674
UWE-3 28 Nov 20:27:48 20:31:09 23° 69° (ENE) 20:34:27 435.000/436.395/437.385
CUBEBUG 2 28 Nov 20:33:35 20:37:19 31° 71° (ENE) 20:41:00 437.445
STRAND 1 28 Nov 20:35:17 20:37:19 12° 300° (WNW) 20:39:21 437.568
CUTE 1.7 + AOD 2 28 Nov 20:43:00 20:46:53 36° 263° (W) 20:50:48 437.475
BEESAT 3 28 Nov 20:47:51 20:50:01 14° 318° (NW) 20:52:11 437.485
RS-15 28 Nov 20:49:04 20:56:25 19° 10° (N) 21:03:53 29.354- 29.394
ZACube-1 28 Nov 20:55:17 20:59:12 40° 72° (ENE) 21:03:06 437.345
HO-68 28 Nov 20:57:30 21:04:03 38° 262° (W) 21:10:39 435.675
DOVE 4 28 Nov 21:06:19 21:10:36 40° 261° (W) 21:14:42 437.250
BEESAT 2 28 Nov 21:07:11 21:08:15 11° 321° (NW) 21:09:20 435.950
VELOX 1 28 Nov 21:07:12 21:11:17 36° 70° (ENE) 21:15:23 145.980
BRITE-PL 28 Nov 21:09:32 21:13:22 23° 265° (W) 21:17:01 437.365/2234.400
DELFI C3 28 Nov 21:11:51 21:15:52 62° 259° (W) 21:19:56 145.870
SEEDS 28 Nov 21:13:04 21:16:07 20° 266° (W) 21:19:13 437.485
ESTCUBE 1 28 Nov 21:17:57 21:21:08 19° 65° (ENE) 21:24:19 437.505/2401.250
50 SAT 28 Nov 21:18:59 21:22:40 36° 72° (ENE) 21:26:21 437.505
CINEMA 3 28 Nov 21:19:22 21:23:33 46° 261° (W) 21:27:38 145.822/145.860
UKube-1 28 Nov 21:21:05 21:25:16 47° 260° (W) 21:29:29 .
AAUSAT CUBESAT 2 28 Nov 21:23:34 21:26:37 20° 266° (W) 21:29:42 437.432
FUNcube-1 28 Nov 21:29:09 21:33:21 82° 258° (WSW) 21:37:31 145.935
Oscar 11 28 Nov 21:30:26 21:34:19 33° 263° (W) 21:38:14 145.826/435.025
AISAT 28 Nov 21:34:59 21:39:27 76° 75° (ENE) 21:43:55 437.250
CUBEBUG 1 28 Nov 21:37:00 21:40:45 28° 69° (ENE) 21:44:31 437.445
ISS 28 Nov 21:37:37 21:40:42 38° 137° (SE) 21:43:47 145.825
COMPASS 1 28 Nov 21:43:13 21:44:22 11° 270° (W) 21:45:32 437.405
POPSAT HIP 1 28 Nov 21:45:40 21:47:33 13° 91° (E) 21:49:26 437.405
HUMSAT D 28 Nov 21:50:52 21:54:59 76° 258° (WSW) 21:59:07 437.325/437.525
TIGRISAT 28 Nov 21:53:06 21:56:47 25° 96° (E) 22:00:32 435.000
DANDE 28 Nov 21:57:01 21:59:26 13° 73° (ENE) 22:02:08 436.750
DX 1 28 Nov 22:01:21 22:04:18 18° 266° (W) 22:07:15 434.975-435.025
UWE-3 28 Nov 22:04:00 22:07:35 27° 264° (W) 22:11:10 435.000/436.395/437.385
UNISAT 6 28 Nov 22:08:11 22:12:21 37° 98° (E) 22:16:35 437.425
CUBEBUG 2 28 Nov 22:10:56 22:14:04 20° 266° (W) 22:17:11 437.445
POLYITAN 1 28 Nov 22:19:35 22:23:23 32° 97° (E) 22:27:10 437.675
QB50P2 28 Nov 22:20:18 22:24:08 32° 97° (E) 22:27:56 145.880/145.840
DUCHIFAT 1 28 Nov 22:24:11 22:28:04 35° 98° (E) 22:31:55 145.980
TISAT 1 28 Nov 22:28:47 22:32:16 25° 68° (ENE) 22:35:45 437.305
ZACube-1 28 Nov 22:33:14 22:35:46 16° 267° (W) 22:38:17 437.345
ANTELSAT 28 Nov 22:37:05 22:41:35 78° 102° (ESE) 22:46:11 437.575/2403.000
NANOSAT C BR1 28 Nov 22:43:56 22:48:07 61° 101° (E) 22:52:17 145.865
VELOX 1 28 Nov 22:44:41 22:47:58 20° 266° (W) 22:51:16 145.980
SPROUT 28 Nov 22:48:02 22:51:57 35° 71° (ENE) 22:55:53 437.525
BUGSAT 1 28 Nov 22:48:25 22:52:25 55° 100° (E) 22:56:22 437.445
ESTCUBE 1 28 Nov 22:53:23 22:57:41 42° 261° (W) 23:02:01 437.505/2401.250
MaSat-1 28 Nov 22:53:33 22:54:31 12° 57° (ENE) 22:55:29 437.345
QB50P1 28 Nov 22:54:16 22:58:30 82° 102° (ESE) 23:02:43 145.935-145.965
50 SAT 28 Nov 22:55:33 22:58:06 16° 267° (W) 23:00:39 437.505
CUSAT 1 28 Nov 22:58:01 23:03:00 57° 80° (E) 23:09:38 437.405
RS-15 28 Nov 23:02:40 23:13:04 41° 42° (NE) 23:23:49 29.354- 29.394
ITUPSAT 1 28 Nov 23:09:02 23:10:43 12° 60° (ENE) 23:12:24 437.325
CUBEBUG 1 28 Nov 23:13:20 23:17:04 26° 264° (W) 23:20:49 437.445
ISS 28 Nov 23:14:33 23:17:24 27° 334° (NNW) 23:20:16 145.825
SWISSCUBE 28 Nov 23:17:22 23:20:13 16° 63° (ENE) 23:23:05 437.505
POPSAT HIP 1 28 Nov 23:19:39 23:23:45 51° 287° (WNW) 23:27:50 437.405
TIGRISAT 28 Nov 23:29:38 23:33:31 30° 290° (WNW) 23:37:27 435.000
DANDE 28 Nov 23:38:02 23:42:56 76° 262° (W) 23:49:36 436.750
AUBIESAT-1 28 Nov 23:44:43 23:48:37 40° 66° (ENE) 23:52:53 437.475
UNISAT 6 28 Nov 23:45:34 23:48:54 21° 293° (WNW) 23:52:18 437.425
BEESAT 28 Nov 23:46:19 23:50:21 28° 68° (ENE) 23:54:25 436.000
M-CUBED/EXP-1 PRIME 28 Nov 23:52:06 23:56:08 53° 68° (ENE) 00:00:34 437.505
POLYITAN 1 28 Nov 23:55:58 23:59:08 21° 293° (WNW) 00:02:19 437.675
QB50P2 28 Nov 23:56:42 23:59:51 21° 293° (WNW) 00:02:59 145.880/145.840
DUCHIFAT 1 29 Nov 00:00:43 00:03:41 19° 293° (WNW) 00:06:40 145.980
TISAT 1 29 Nov 00:04:23 00:08:00 27° 264° (W) 00:11:38 437.305
ANTELSAT 29 Nov 00:16:41 00:17:47 11° 298° (WNW) 00:18:53 437.575/2403.000
NANOSAT C BR1 29 Nov 00:21:56 00:23:29 12° 297° (WNW) 00:25:01 145.865
SPROUT 29 Nov 00:25:02 00:28:08 19° 266° (W) 00:31:15 437.525
BUGSAT 1 29 Nov 00:25:52 00:27:26 12° 297° (WNW) 00:28:59 437.445
MaSat-1 29 Nov 00:27:28 00:28:51 14° 251° (WSW) 00:30:15 437.345
CUSAT 1 29 Nov 00:42:19 00:46:02 19° 268° (W) 00:50:25 437.405
ITUPSAT 1 29 Nov 00:43:06 00:47:55 80° 257° (WSW) 00:52:46 437.325
Oscar 19 29 Nov 00:43:17 00:47:40 27° 95° (E) 00:52:02 437.125/150
SWISSCUBE 29 Nov 00:52:52 00:57:36 58° 259° (W) 01:02:21 437.505
ISS 29 Nov 00:53:39 00:54:55 12° 353° (N) 00:56:10 145.825
KKS-1 29 Nov 00:57:41 01:01:33 30° 69° (ENE) 01:05:25 437.445
RS-15 29 Nov 01:15:00 01:26:05 66° 245° (WSW) 01:37:40 29.354- 29.394
SO-50 29 Nov 01:18:30 01:19:46 11° 106° (ESE) 01:21:02 436.795
AUBIESAT-1 29 Nov 01:20:58 01:23:50 18° 264° (W) 01:26:53 437.475
BEESAT 29 Nov 01:23:53 01:28:05 30° 263° (W) 01:32:20 436.000
YUBILEINY 29 Nov 01:28:41 01:37:02 50° 89° (E) 01:45:22 435.215
M-CUBED/EXP-1 PRIME 29 Nov 01:29:31 01:31:36 14° 266° (W) 01:33:47 437.505
ITAMSAT 1 29 Nov 01:43:22 01:48:12 38° 98° (E) 01:52:58 435.822/435.867
STARS 29 Nov 01:45:55 01:50:17 68° 75° (ENE) 01:54:40 437.465
HORYU 2 29 Nov 02:09:17 02:11:52 15° 92° (E) 02:14:26 437.375
AO-7 29 Nov 02:20:35 02:21:39 10° 86° (E) 02:22:42 29.400- 29.500
Oscar 19 29 Nov 02:22:22 02:27:01 35° 291° (WNW) 02:31:40 437.125/150
ISS 29 Nov 02:30:48 02:32:40 14° 14° (NNE) 02:34:31 145.825
KKS-1 29 Nov 02:34:33 02:38:10 24° 265° (W) 02:41:48 437.445
Gurwin Techsat 1B 29 Nov 02:34:34 02:39:52 70° 102° (ESE) 02:45:09 435.225
SO-50 29 Nov 02:55:06 02:59:35 75° 303° (WNW) 03:04:16 436.795
AIST 2 29 Nov 02:59:09 03:00:46 12° 39° (NE) 03:02:23 435.215
PCSat 29 Nov 03:21:16 03:26:25 41° 55° (NE) 03:31:31 145.827
ITAMSAT 1 29 Nov 03:23:16 03:27:28 26° 294° (WNW) 03:31:39 435.822/435.867
YUBILEINY 29 Nov 03:26:12 03:34:02 35° 288° (WNW) 03:41:54 435.215
STARS 29 Nov 03:26:36 03:27:12 10° 270° (W) 03:27:48 437.465
BEESAT 3 29 Nov 03:27:57 03:31:52 37° 52° (NE) 03:35:45 437.485
RS-15 29 Nov 03:32:21 03:36:14 12° 264° (W) 03:40:11 29.354- 29.394
HORYU 2 29 Nov 03:44:27 03:48:48 49° 288° (WNW) 03:53:08 437.375
BEESAT 2 29 Nov 03:46:06 03:50:14 52° 55° (NE) 03:54:18 435.950
O/OREOS (USA 219) 29 Nov 03:57:59 04:00:36 15° 99° (E) 04:03:13 437.305
MOZHAYETS 4 29 Nov 04:01:54 04:06:29 76° 75° (ENE) 04:11:07
PRISM 29 Nov 04:02:43 04:04:54 14° 64° (ENE) 04:07:04 437.425
ISS 29 Nov 04:06:43 04:09:55 49° 33° (NNE) 04:13:08 145.825
AO-7 29 Nov 04:07:32 04:15:53 66° 104° (ESE) 04:24:10 29.400- 29.500
Gurwin Techsat 1B 29 Nov 04:16:10 04:19:14 16° 299° (WNW) 04:22:17 435.225
JAS-2 29 Nov 04:25:39 04:31:42 33° 93° (E) 04:37:06 435.910
STRAND 1 29 Nov 04:32:56 04:35:33 14° 61° (ENE) 04:38:10 437.568
AIST 2 29 Nov 04:35:46 04:40:06 84° 58° (ENE) 04:44:21 435.215
SO-50 29 Nov 04:39:07 04:41:00 12° 323° (NW) 04:42:54 436.795
Cubesat XI-IV 29 Nov 04:51:37 04:53:03 11° 89° (E) 04:54:28 437.490
PCSat 29 Nov 05:05:06 05:09:36 27° 252° (WSW) 05:14:04 145.827
BEESAT 3 29 Nov 05:06:46 05:09:50 20° 249° (WSW) 05:12:52 437.485
BEESAT 2 29 Nov 05:25:48 05:28:04 14° 251° (WSW) 05:30:19 435.950
CUTE-I 29 Nov 05:29:27 05:33:55 27° 95° (E) 05:38:21 437.470
O/OREOS (USA 219) 29 Nov 05:35:15 05:39:34 47° 296° (WNW) 05:43:54 437.305
PRISM 29 Nov 05:35:53 05:39:59 52° 260° (W) 05:44:08 437.425
ISS 29 Nov 05:44:01 05:46:18 18° 229° (SW) 05:48:35 145.825
CUBESAT XI-V 29 Nov 05:52:59 05:57:42 81° 76° (ENE) 06:02:27 437.345
AO-7 29 Nov 06:01:11 06:08:03 30° 303° (WNW) 06:14:54 29.400- 29.500
AIST 1 29 Nov 06:08:30 06:12:53 73° 82° (E) 06:17:11
STRAND 1 29 Nov 06:08:57 06:14:06 74° 257° (WSW) 06:19:15 437.568
JAS-2 29 Nov 06:10:27 06:16:50 40° 294° (WNW) 06:22:30 435.910
Cubesat XI-IV 29 Nov 06:28:25 06:33:46 84° 285° (WNW) 06:39:04 437.490
CUTE-I 29 Nov 07:09:12 07:14:02 37° 291° (WNW) 07:18:51 437.470
GONETS M04 29 Nov 07:19:13 07:27:43 56° 90° (E) 07:36:16
CANX-2 29 Nov 07:55:38 07:58:35 18° 93° (E) 08:01:33 2200.000
Cubesat XI-IV 29 Nov 08:11:30 08:13:00 11° 302° (WNW) 08:14:29 437.490
HO-68 29 Nov 08:25:12 08:32:01 45° 99° (E) 08:38:46 435.675
GOMX 1 29 Nov 08:26:59 08:30:29 25° 96° (E) 08:34:04 467.674
CUTE 1.7 + AOD 2 29 Nov 08:28:56 08:32:59 38° 98° (E) 08:37:00 437.475
TIGRISAT 29 Nov 08:52:22 08:55:28 20° 67° (ENE) 08:58:34 435.000
DELFI C3 29 Nov 08:54:13 08:57:15 19° 94° (E) 09:00:16 145.870
SEEDS 29 Nov 08:57:08 09:01:25 72° 102° (ESE) 09:05:41 437.485
